Chatham, MA

11:55 AM EDT on July 23, 2017 (GMT -0400)
Chatham Municipal

Weather History for KCQX - October, 2012

Change the Weather History Date:

Tuesday, October 9, 2012

  Actual Average Record
Temperature  
Mean Temperature 54 °F -  
Max Temperature 57 °F 60 °F 82 °F (2011)
Min Temperature 53 °F 46 °F 36 °F (2001)
Degree Days  
Heating Degree Days 11    
Growing Degree Days 4 (Base 50)    
Moisture  
Dew Point 52 °F    
Average Humidity 90    
Maximum Humidity 100    
Minimum Humidity 77    
Precipitation  
Precipitation 0.38 in - - ()
Sea Level Pressure  
Sea Level Pressure 30.20 in    
Wind  
Wind Speed 12 mph (ENE)    
Max Wind Speed 17 mph    
Max Gust Speed 25 mph    
Visibility 6 miles    
Events Rain    
Averages and records for this station are not official NWS values.
T = Trace of Precipitation, MM = Missing Value Source: NWS Daily Summary

Daily Weather History Graph

Daily Weather History Graph

Search for Another Location

Airport or City:

Trip Planner

Search our weather history database for the weather conditions in past years. The results will help you decide how hot, cold, wet, or windy it might be!

Date:

Astronomy

Oct. 09, 2012 Rise Set
Actual Time 6:45 AM EDT 6:07 PM EDT
Civil Twilight 6:18 AM EDT 6:35 PM EDT
Nautical Twilight 5:45 AM EDT 7:07 PM EDT
Astronomical Twilight 5:13 AM EDT 7:39 PM EDT
Moon 12:14 AM EDT (10/9) 2:37 PM EDT (10/9)
Length of Visible Light 12h 17m
Length of Day
11h 21m
Last Quarter, 37% of the Moon is Illuminated
Oct 9
Last Quarter
Oct 15
New
Oct 21
First Quarter
Oct 29
Full
Nov 6
Last Quarter

Hourly Weather History & Observations

Time (EDT) Temp. Dew Point Humidity Pressure Visibility Wind Dir Wind Speed Gust Speed Precip Events Conditions
12:52 AM 55.0 °F 48.0 °F 77% 30.28 in 10.0 mi East 5.8 mph - 0.01 in Rain Light Rain
1:52 AM 54.0 °F 48.9 °F 83% 30.31 in 10.0 mi East 5.8 mph - 0.02 in Rain Light Rain
2:52 AM 53.1 °F 48.9 °F 86% 30.28 in 8.0 mi East 10.4 mph - 0.08 in Rain Light Rain
3:52 AM 53.1 °F 48.9 °F 86% 30.26 in 5.0 mi ENE 10.4 mph - 0.18 in Rain Rain
4:21 AM 53.6 °F 50.0 °F 88% 30.24 in 9.0 mi East 12.7 mph - 0.05 in Rain Light Rain
4:35 AM 53.6 °F 48.2 °F 82% 30.24 in 10.0 mi ENE 11.5 mph 19.6 mph 0.05 in   Overcast
4:52 AM 53.1 °F 50.0 °F 89% 30.24 in 10.0 mi East 11.5 mph - 0.05 in   Overcast
4:59 AM 53.6 °F 50.0 °F 88% 30.24 in 10.0 mi ENE 12.7 mph - N/A   Overcast
5:52 AM 54.0 °F 48.9 °F 83% 30.24 in 10.0 mi East 13.8 mph 21.9 mph N/A   Overcast
7:16 AM 53.6 °F 50.0 °F 88% 30.24 in 3.0 mi ENE 15.0 mph 23.0 mph 0.00 in Rain Light Rain
7:25 AM 53.6 °F 50.0 °F 88% 30.24 in 2.5 mi ENE 11.5 mph 23.0 mph 0.00 in Rain Light Rain
7:32 AM 53.6 °F 50.0 °F 88% 30.24 in 2.5 mi ENE 12.7 mph - 0.00 in Rain Light Rain
7:47 AM 53.6 °F 51.8 °F 94% 30.24 in 1.5 mi ENE 16.1 mph 19.6 mph 0.01 in Rain Light Rain
7:48 AM 53.1 °F 51.1 °F 93% 30.24 in 1.5 mi ENE 17.3 mph - 0.01 in Rain Light Rain
7:59 AM 53.6 °F 51.8 °F 94% 30.24 in 2.0 mi ENE 15.0 mph 20.7 mph 0.01 in Rain Light Rain
8:12 AM 53.6 °F 50.0 °F 88% 30.24 in 3.0 mi ENE 11.5 mph 23.0 mph 0.01 in   Overcast
8:31 AM 53.6 °F 50.0 °F 88% 30.24 in 3.0 mi ENE 15.0 mph 20.7 mph 0.01 in Rain Light Rain
8:52 AM 53.1 °F 50.0 °F 89% 30.25 in 6.0 mi ENE 12.7 mph 20.7 mph 0.01 in   Overcast
8:58 AM 53.6 °F 51.8 °F 94% 30.25 in 3.0 mi ENE 12.7 mph 23.0 mph N/A   Overcast
9:04 AM 53.6 °F 51.8 °F 94% 30.25 in 1.8 mi ENE 13.8 mph 23.0 mph 0.00 in Rain Light Rain
9:12 AM 53.6 °F 51.8 °F 94% 30.24 in 2.0 mi ENE 13.8 mph - 0.00 in Rain Light Rain
9:27 AM 53.6 °F 51.8 °F 94% 30.23 in 3.0 mi ENE 13.8 mph 21.9 mph 0.00 in Rain Light Rain
9:34 AM 53.6 °F 51.8 °F 94% 30.24 in 5.0 mi ENE 13.8 mph 21.9 mph 0.00 in   Overcast
9:52 AM 54.0 °F 51.1 °F 90% 30.26 in 8.0 mi East 16.1 mph 23.0 mph 0.00 in   Overcast
9:59 AM 53.6 °F 51.8 °F 94% 30.24 in 8.0 mi ENE 15.0 mph 23.0 mph N/A   Overcast
10:06 AM 53.6 °F 51.8 °F 94% 30.24 in 10.0 mi ENE 12.7 mph - N/A   Overcast
10:52 AM 54.0 °F 52.0 °F 93% 30.23 in 5.0 mi ENE 13.8 mph 20.7 mph N/A   Overcast
11:21 AM 55.4 °F 51.8 °F 88% 30.22 in 9.0 mi NE 10.4 mph - N/A   Overcast
11:35 AM 53.6 °F 51.8 °F 94% 30.22 in 2.5 mi NE 15.0 mph 21.9 mph N/A   Overcast
11:52 AM 55.0 °F 53.1 °F 93% 30.22 in 5.0 mi ENE 12.7 mph 18.4 mph 0.01 in   Overcast
12:24 PM 53.6 °F 53.6 °F 100% 30.21 in 2.5 mi NE 11.5 mph 20.7 mph N/A   Overcast
12:37 PM 55.4 °F 53.6 °F 94% 30.20 in 4.0 mi NE 12.7 mph 19.6 mph N/A   Overcast
12:52 PM 54.0 °F 52.0 °F 93% 30.21 in 4.0 mi NE 13.8 mph 20.7 mph N/A   Overcast
1:07 PM 55.4 °F 51.8 °F 88% 30.19 in 9.0 mi NE 13.8 mph - N/A   Overcast
1:52 PM 55.0 °F 53.1 °F 93% 30.18 in 5.0 mi ENE 15.0 mph 21.9 mph N/A   Overcast
2:01 PM 55.4 °F 53.6 °F 94% 30.17 in 7.0 mi NE 15.0 mph 23.0 mph N/A   Overcast
2:11 PM 55.4 °F 53.6 °F 94% 30.17 in 9.0 mi ENE 13.8 mph 21.9 mph N/A   Overcast
2:19 PM 55.4 °F 51.8 °F 88% 30.17 in 10.0 mi NE 16.1 mph 21.9 mph N/A   Overcast
2:52 PM 55.9 °F 52.0 °F 87% 30.17 in 8.0 mi NE 16.1 mph 20.7 mph N/A   Overcast
3:26 PM 55.4 °F 53.6 °F 94% 30.16 in 4.0 mi NE 13.8 mph - N/A   Overcast
3:52 PM 55.0 °F 52.0 °F 89% 30.17 in 4.0 mi NE 12.7 mph 20.7 mph N/A   Overcast
3:58 PM 55.4 °F 51.8 °F 88% 30.16 in 9.0 mi NE 15.0 mph 21.9 mph N/A   Overcast
4:12 PM 55.4 °F 51.8 °F 88% 30.16 in 10.0 mi NE 15.0 mph 21.9 mph N/A   Overcast
4:52 PM 54.0 °F 51.1 °F 90% 30.16 in 9.0 mi NE 12.7 mph 23.0 mph N/A   Overcast
5:05 PM 53.6 °F 51.8 °F 94% 30.15 in 9.0 mi NE 15.0 mph 25.3 mph N/A   Overcast
5:26 PM 55.4 °F 51.8 °F 88% 30.15 in 10.0 mi NE 12.7 mph 21.9 mph N/A   Overcast
5:52 PM 54.0 °F 51.1 °F 90% 30.16 in 10.0 mi NE 13.8 mph 21.9 mph N/A   Overcast
6:52 PM 55.0 °F 51.1 °F 86% 30.15 in 10.0 mi NE 9.2 mph 21.9 mph N/A   Overcast
7:33 PM 55.4 °F 51.8 °F 88% 30.13 in 10.0 mi NE 15.0 mph 23.0 mph N/A   Overcast
7:50 PM 55.4 °F 51.8 °F 88% 30.13 in 10.0 mi NE 11.5 mph 20.7 mph N/A   Overcast
7:52 PM 55.0 °F 52.0 °F 89% 30.14 in 10.0 mi NE 12.7 mph 20.7 mph N/A   Overcast
8:52 PM 55.9 °F 52.0 °F 87% 30.14 in 10.0 mi NE 11.5 mph 20.7 mph N/A   Overcast
9:52 PM 55.9 °F 53.1 °F 90% 30.13 in 9.0 mi NE 10.4 mph 18.4 mph N/A   Overcast
10:52 PM 55.9 °F 54.0 °F 93% 30.12 in 4.0 mi NE 9.2 mph - 0.00 in Rain Light Rain
11:31 PM 55.4 °F 53.6 °F 94% 30.12 in 2.5 mi NE 10.4 mph - 0.00 in Rain Light Rain
11:50 PM 55.4 °F 53.6 °F 94% 30.12 in 3.0 mi NE 8.1 mph - 0.01 in Rain Light Rain
11:51 PM 55.9 °F 54.0 °F 93% 30.12 in 3.0 mi NE 8.1 mph - 0.01 in Rain Light Rain